Regional Weather Roundup
Issued by NWS

Home | Current Version | Previous Version | Text Only | Print | Product List | Glossary On
Versions: 1 2 3 4 5 6 7 8 9 10 11 12 13 14 15 16 17 18 19 20 21 22 23 24 25 26 27 28 29 30 31 32 33 34 35 36 37 38 39 40 41 42 43 44 45 46 47 48 49 50
000
ASUS46 KPQR 011110
RWROR

OREGON REGIONAL WEATHER ROUNDUP
NATIONAL WEATHER SERVICE PORTLAND OR
400 AM PDT SUN MAY 01 2016

NOTE: "FAIR" INDICATES FEW OR NO CLOUDS BELOW 12,000 FEET WITH
NO SIGNIFICANT WEATHER AND/OR OBSTRUCTIONS TO VISIBILITY.

ORZ001>013-011200-
NORTHWEST OREGON


CITY           SKY/WX    TMP DP  RH WIND       PRES   REMARKS
ASTORIA        MOCLDY    44  42  93 CALM      30.19F FOG
NEWPORT        PTCLDY    46  45  93 CALM      30.16F
PORTLAND       CLEAR     50  45  83 CALM      30.19S
VANCOUVER WA   CLEAR     46  42  86 CALM      30.18F
SCAPPOOSE      CLEAR     50  41  71 CALM      30.18F
HILLSBORO      CLEAR     47  42  83 CALM      30.17F
AURORA         CLEAR     48  43  82 NE5       30.18S
MCMINNVILLE    CLEAR     45  42  89 CALM      30.17F
SALEM          CLEAR     47  43  86 CALM      30.16S
CORVALLIS        N/A     46  43  87 CALM      30.15F
EUGENE         CLEAR     44  41  89 E6        30.14F
$$

ORZ021-028-011200-
SOUTHWEST OREGON


CITY           SKY/WX    TMP DP  RH WIND       PRES   REMARKS
NORTH BEND     PTCLDY    45  45 100 CALM      30.10F
BROOKINGS      CLEAR     64  42  44 VRB7      29.98F
ROSEBURG       CLEAR     47  43  86 CALM      30.11F
SEXTON SUMMIT  CLEAR     48  32  53 E10G17    30.08F
MEDFORD        CLEAR     45  40  82 CALM      30.08F
$$

ORZ014>016-041-011200-
COLUMBIA GORGE


CITY           SKY/WX    TMP DP  RH WIND       PRES   REMARKS
TROUTDALE      CLEAR     47  44  90 CALM      30.18F
THE DALLES     CLEAR     48  44  86 CALM      30.19S
$$

ORZ029>031-041-044-049-050-061>064-502-503-505>511-011200-
EASTERN OREGON


CITY           SKY/WX    TMP DP  RH WIND       PRES   REMARKS
REDMOND        CLEAR     39  32  76 S3        30.17S
BEND           CLEAR     41  34  75 NW6       30.17S
PRINEVILLE     CLEAR     37  34  87 CALM      30.17S
KLAMATH FALLS  CLEAR     42  30  62 NE3       30.10S
LAKEVIEW       PTCLDY    37  28  70 N14       30.12F WCI  29
HERMISTON      CLEAR     41  39  93 SE5       30.18S
PENDLETON      CLEAR     41  38  89 E6        30.17F
JOHN DAY       CLEAR     38  34  85 S3        30.17S
MEACHAM        CLEAR     30  28  92 CALM      30.18F
LA GRANDE      CLEAR     45  32  61 N8        30.17F
BAKER CITY     CLEAR     38  34  85 CALM      30.18R
BURNS          CLEAR     32  28  85 W3        30.14S
ROME             N/A     32  28  85 SE8       30.11R WCI  25
ONTARIO        CLEAR     47  38  71 N3        30.12R
$$



USA.gov is the U.S. government's official web portal to all federal, state and local government web resources and services.